EZY567K EGGP-EGAC

Flight info

Callsign EZY567K
Flight time 0h 23m
Altitude 20000
Route WAL M146 ERDUV Z198 MASOP M148 MAGEE
Aircraft A320/M-SDE3FGHIRWY/LB1

Departure

Time 2026-04-29 13:45
Airport Liverpool John Lennon Airport (EGGP)

Arrival

Time 2026-04-29 14:09
Airport George Best Belfast City Airport (EGAC)
Time Latitude Longitude Altitude Speed Heading
2026-04-29 13:45 53.40197 -3.16987 13422 ft 383 kts 301°
2026-04-29 13:45 53.41836 -3.20545 13925 ft 389 kts 317°
2026-04-29 13:46 53.43875 -3.23557 14532 ft 392 kts 325°
2026-04-29 13:46 53.46020 -3.26337 15155 ft 396 kts 326°
2026-04-29 13:46 53.48214 -3.29246 15808 ft 400 kts 324°
2026-04-29 13:46 53.50329 -3.32314 16444 ft 405 kts 321°
2026-04-29 13:47 53.52386 -3.35593 17073 ft 409 kts 318°
2026-04-29 13:47 53.54396 -3.39022 17688 ft 414 kts 316°
2026-04-29 13:47 53.56390 -3.42543 18304 ft 417 kts 316°
2026-04-29 13:47 53.58293 -3.46244 18860 ft 423 kts 308°
2026-04-29 13:48 53.59961 -3.50361 19378 ft 427 kts 306°
2026-04-29 13:48 53.61639 -3.54459 19895 ft 430 kts 307°
2026-04-29 13:48 53.63366 -3.58593 20250 ft 432 kts 307°
2026-04-29 13:48 53.65116 -3.62714 20348 ft 436 kts 307°
2026-04-29 13:49 53.66905 -3.66903 20361 ft 445 kts 308°
2026-04-29 13:49 53.68714 -3.71162 20344 ft 448 kts 307°
2026-04-29 13:49 53.70519 -3.75453 20358 ft 448 kts 307°
2026-04-29 13:49 53.72314 -3.79761 20356 ft 448 kts 307°
2026-04-29 13:50 53.74098 -3.84063 20358 ft 448 kts 307°
2026-04-29 13:50 53.75885 -3.88377 20358 ft 448 kts 307°
2026-04-29 13:50 53.77669 -3.92690 20358 ft 448 kts 307°
2026-04-29 13:50 53.79454 -3.97014 20362 ft 448 kts 307°
2026-04-29 13:51 53.81236 -4.01344 20362 ft 448 kts 307°
2026-04-29 13:51 53.83018 -4.05673 20363 ft 448 kts 307°
2026-04-29 13:51 53.84815 -4.09981 20362 ft 447 kts 309°
2026-04-29 13:51 53.86863 -4.13845 20360 ft 444 kts 320°
2026-04-29 13:52 53.89255 -4.17103 20369 ft 440 kts 330°
2026-04-29 13:52 53.91896 -4.19639 20369 ft 434 kts 340°
2026-04-29 13:52 53.94693 -4.21540 20353 ft 432 kts 343°
2026-04-29 13:52 53.97496 -4.23374 20366 ft 432 kts 343°
2026-04-29 13:53 54.00299 -4.25224 20375 ft 432 kts 343°
2026-04-29 13:53 54.03107 -4.27091 20378 ft 432 kts 343°
2026-04-29 13:53 54.05895 -4.28950 20380 ft 431 kts 343°
2026-04-29 13:53 54.08685 -4.30807 20385 ft 431 kts 343°
2026-04-29 13:54 54.11483 -4.32712 20387 ft 433 kts 340°
2026-04-29 13:54 54.14119 -4.35220 20386 ft 438 kts 329°
2026-04-29 13:54 54.16491 -4.38518 20382 ft 442 kts 318°
2026-04-29 13:54 54.18502 -4.42508 20369 ft 445 kts 307°
2026-04-29 13:55 54.20257 -4.46810 20188 ft 438 kts 307°
2026-04-29 13:55 54.22012 -4.51096 19330 ft 443 kts 307°
2026-04-29 13:55 54.23783 -4.55398 18806 ft 439 kts 307°
2026-04-29 13:55 54.25512 -4.59602 18234 ft 435 kts 307°
2026-04-29 13:56 54.27266 -4.63886 17726 ft 430 kts 306°
2026-04-29 13:56 54.28969 -4.68062 17201 ft 426 kts 306°
2026-04-29 13:56 54.30654 -4.72208 16679 ft 422 kts 306°
2026-04-29 13:56 54.32326 -4.76330 16161 ft 419 kts 306°
2026-04-29 13:57 54.33958 -4.80359 15667 ft 417 kts 306°
2026-04-29 13:57 54.35610 -4.84445 15142 ft 414 kts 306°
2026-04-29 13:57 54.37246 -4.88502 14620 ft 412 kts 306°
2026-04-29 13:57 54.38871 -4.92535 14102 ft 410 kts 306°
2026-04-29 13:58 54.40485 -4.96543 13536 ft 407 kts 306°
2026-04-29 13:58 54.42085 -5.00535 13031 ft 403 kts 305°
2026-04-29 13:58 54.43671 -5.04490 12496 ft 399 kts 305°
2026-04-29 13:58 54.45241 -5.08399 11973 ft 395 kts 306°
2026-04-29 13:59 54.46802 -5.12270 11427 ft 392 kts 306°
2026-04-29 13:59 54.48352 -5.16105 10941 ft 387 kts 306°
2026-04-29 13:59 54.49865 -5.19827 10802 ft 372 kts 307°
2026-04-29 13:59 54.51538 -5.23010 10682 ft 356 kts 321°
2026-04-29 14:00 54.53435 -5.25603 10562 ft 342 kts 324°
2026-04-29 14:00 54.55272 -5.28086 10448 ft 330 kts 324°
2026-04-29 14:00 54.57048 -5.30508 10271 ft 322 kts 324°
2026-04-29 14:00 54.58797 -5.32900 9908 ft 319 kts 324°
2026-04-29 14:01 54.60522 -5.35263 9370 ft 315 kts 324°
2026-04-29 14:01 54.62233 -5.37605 8699 ft 311 kts 324°
2026-04-29 14:01 54.63921 -5.39909 8070 ft 308 kts 324°
2026-04-29 14:01 54.65593 -5.42193 7452 ft 304 kts 323°
2026-04-29 14:02 54.67248 -5.44454 6792 ft 302 kts 323°
2026-04-29 14:02 54.68888 -5.46693 6092 ft 299 kts 323°
2026-04-29 14:02 54.70506 -5.48911 5426 ft 296 kts 323°
2026-04-29 14:02 54.72114 -5.51124 4751 ft 293 kts 323°
2026-04-29 14:03 54.73673 -5.53276 4180 ft 287 kts 323°
2026-04-29 14:03 54.75208 -5.55396 3813 ft 272 kts 323°
2026-04-29 14:03 54.76636 -5.57366 3750 ft 255 kts 323°
2026-04-29 14:03 54.77838 -5.59505 3675 ft 246 kts 300°
2026-04-29 14:04 54.78437 -5.62245 3575 ft 241 kts 275°
2026-04-29 14:04 54.78377 -5.65094 3465 ft 229 kts 250°
2026-04-29 14:04 54.77762 -5.67505 3370 ft 210 kts 228°
2026-04-29 14:04 54.76824 -5.69198 3267 ft 189 kts 207°
2026-04-29 14:05 54.75742 -5.70503 3183 ft 186 kts 207°
2026-04-29 14:05 54.74701 -5.71761 2979 ft 184 kts 206°
2026-04-29 14:05 54.73651 -5.73027 2749 ft 183 kts 207°
2026-04-29 14:05 54.72591 -5.74303 2491 ft 184 kts 207°
2026-04-29 14:06 54.71552 -5.75554 2250 ft 185 kts 208°
2026-04-29 14:06 54.70496 -5.76825 1994 ft 185 kts 209°
2026-04-29 14:06 54.69443 -5.78093 1749 ft 181 kts 208°
2026-04-29 14:06 54.68466 -5.79275 1494 ft 162 kts 206°
2026-04-29 14:07 54.67580 -5.80340 1274 ft 149 kts 209°
2026-04-29 14:07 54.66730 -5.81357 1065 ft 148 kts 211°
2026-04-29 14:07 54.65873 -5.82365 839 ft 151 kts 211°
2026-04-29 14:07 54.65005 -5.83390 685 ft 153 kts 215°
2026-04-29 14:08 54.64142 -5.84470 478 ft 152 kts 212°
2026-04-29 14:08 54.63283 -5.85481 261 ft 148 kts 213°
2026-04-29 14:08 54.62448 -5.86491 47 ft 146 kts 212°
2026-04-29 14:08 54.61701 -5.87380 20 ft 99 kts 214°
2026-04-29 14:09 54.61406 -5.87769 13 ft 31 kts 221°
2026-04-29 14:09 54.61292 -5.87731 15 ft 12 kts 122°
2026-04-29 14:09 54.61275 -5.87687 16 ft 0 kts 122°